Wind_Speed
1 1 1 2 2 2 2 3 3 4 4 4 4 4 4 4 4 3 3 3 3 4 4 4 4 5 6 6 6 6 6 5 4 4 4 5 5 5 6 7 7 7 7
2 2 2 3 3 3 4 4 4 4 5 5 5 4 5 5 4 3 4 5 5 5 5 5 5 5 6 6 6 6 6 5 5 4 5 4 4 4 5 7 6 6 7
3 3 3 4 4 5 5 6 6 6 6 6 6 5 5 5 5 5 5 6 6 5 5 5 5 6 6 6 6 6 6 6 6 5 5 4 4 4 5 6 6 6 6
4 4 4 4 5 6 6 7 7 7 7 7 7 7 6 7 7 7 7 7 7 7 6 6 6 7 7 7 7 7 7 7 6 5 5 4 4 4 5 5 6 6 6
4 5 5 5 5 6 6 7 7 8 7 7 7 8 7 8 9 9 9 8 7 7 7 7 6 7 7 7 7 7 7 7 7 7 6 6 5 5 5 6 6 6 7
5 6 6 6 6 6 7 7 8 8 8 8 8 8 8 9 10 9 8 8 8 8 7 7 7 7 7 7 7 7 8 8 8 7 6 6 7 7 6 6 7 7 7
6 6 7 7 7 7 8 8 8 8 8 8 8 7 8 8 8 7 7 8 8 9 8 8 9 8 7 7 6 7 7 7 7 7 7 7 8 8 8 8 8 8 8
6 7 8 9 9 8 8 8 7 7 8 7 7 7 7 7 7 6 6 7 8 8 9 9 9 9 7 7 7 7 7 7 6 6 7 7 8 8 9 8 8 9 9
7 8 9 9 8 8 7 8 7 7 7 7 6 6 7 6 6 6 6 7 8 8 8 9 9 9 9 9 8 8 8 7 7 8 8 8 8 8 9 8 8 9 10
8 9 9 9 8 7 7 7 7 7 7 6 6 6 6 6 6 6 7 7 7 8 8 8 8 8 9 9 8 8 8 8 9 8 9 10 10 10 9 9 9 9 10
9 8 8 8 8 7 7 6 7 6 6 6 6 7 6 5 6 7 7 7 7 8 8 7 7 8 8 9 9 9 9 9 10 9 9 10 10 10 10 10 10 10 10
8 8 7 7 7 7 7 7 7 7 6 6 7 6 6 6 6 7 8 8 8 8 7 7 7 8 8 9 9 10 11 11 10 10 9 9 9 9 9 10 11 11 11
8 8 7 7 6 7 6 7 6 6 6 6 6 6 6 7 7 8 8 8 8 8 8 8 8 8 8 9 10 11 12 13 12 11 11 11 10 9 9 9 10 10 11
8 8 7 7 7 6 6 7 6 6 7 7 7 7 7 8 8 8 8 8 8 8 9 8 9 9 9 10 10 11 12 12 13 13 12 11 11 11 10 9 10 10 11
8 8 7 8 7 6 6 7 7 7 7 8 8 8 8 9 9 9 9 8 8 9 9 9 9 10 10 10 10 11 11 11 12 13 13 12 11 11 11 10 10 10 10
7 7 7 7 7 7 7 8 7 8 8 9 9 9 9 9 10 10 10 10 9 9 9 10 10 10 11 10 11 11 11 11 12 12 13 12 11 11 11 11 11 11 10
7 7 7 7 7 8 8 8 8 9 10 9 9 9 9 9 10 10 10 10 10 10 11 10 10 10 11 11 11 11 11 11 11 12 12 12 12 11 11 11 11 11 11
7 7 7 7 8 8 9 9 9 10 10 10 10 9 10 10 11 11 11 11 11 11 11 11 11 12 11 11 11 11 10 11 11 11 11 12 12 12 11 11 11 11 11
8 8 8 8 9 9 10 10 10 11 11 10 10 10 11 12 12 12 12 11 11 12 12 12 12 12 12 12 12 11 11 11 11 11 11 12 12 12 12 11 11 12 12
9 9 9 10 10 11 11 11 12 12 13 12 12 11 12 12 12 12 12 12 12 12 12 12 12 12 12 12 13 13 12 12 12 12 13 13 13 13 14 13 13 12 12
10 10 10 10 10 11 11 12 13 13 13 13 13 13 12 12 13 13 13 13 12 12 12 13 13 13 13 13 14 13 13 13 13 13 14 14 15 14 15 14 14 13 13
10 10 10 10 11 11 12 12 13 14 14 14 14 14 14 13 13 14 13 13 13 13 13 13 13 14 14 14 14 14 14 14 13 14 14 14 15 15 15 14 13 13 13
10 10 11 11 12 12 12 13 14 14 15 15 15 15 16 15 15 15 15 15 15 15 14 14 14 14 14 14 14 14 14 14 14 14 14 14 15 15 15 14 14 13 13
11 11 12 12 13 12 13 13 14 14 15 16 16 16 16 16 16 16 15 15 16 16 15 15 15 15 15 15 15 15 15 14 14 14 15 15 15 15 15 15 14 14 14
11 12 12 12 13 13 14 14 14 15 15 15 16 16 16 16 17 17 17 16 16 17 17 17 16 16 16 16 16 16 15 15 15 15 14 14 15 15 15 15 15 15 15
12 12 12 12 13 14 15 15 15 15 15 16 16 16 16 16 17 17 17 18 18 18 17 17 17 17 17 17 16 16 16 16 16 16 15 14 15 16 16 16 16 16 16
Wind_Direction
230 255 271 295 293 298 300 299 297 294 288 295 308 317 314 323 323 300 264 244 227 217 212 210 208 206 205 205 210 216 220 224 231 243 249 255 252 246 232 227 226 229 231
258 261 276 287 292 294 291 295 296 290 290 290 295 300 303 304 302 283 263 256 243 235 229 225 222 218 215 214 218 226 229 230 234 246 254 256 252 240 224 225 231 237 240
265 267 275 282 288 293 293 290 290 289 287 285 286 290 295 294 290 275 264 266 255 246 238 235 239 236 232 227 229 235 237 242 243 250 257 256 243 230 226 226 232 242 231
271 272 275 284 289 291 291 291 293 290 287 285 281 283 291 291 290 285 274 267 263 259 254 247 246 247 247 245 242 243 248 248 251 256 260 261 243 225 230 229 233 234 224
285 287 284 286 290 293 293 291 296 294 289 288 290 284 289 292 286 283 275 265 262 256 250 244 244 249 250 249 250 247 245 243 249 256 258 259 249 235 238 238 237 235 230
289 288 286 286 289 290 288 291 291 292 288 287 289 289 289 287 285 277 263 255 259 256 252 244 243 252 256 247 245 244 254 252 252 254 254 256 256 253 247 249 240 236 233
290 291 286 285 287 289 288 286 288 287 289 288 291 296 295 293 293 276 261 253 256 258 256 253 251 255 262 258 257 254 255 255 253 251 250 254 256 253 251 250 244 240 238
285 287 285 285 285 282 280 282 284 288 292 294 297 302 298 294 297 275 259 265 267 265 260 259 255 255 259 259 260 257 253 253 258 256 254 256 256 256 251 247 246 240 240
282 284 287 284 284 282 280 278 276 281 286 291 296 302 297 294 298 289 277 275 275 273 269 263 260 257 258 256 257 255 252 255 255 256 259 258 255 256 250 245 246 244 243
283 286 284 282 284 282 276 274 274 276 281 286 290 292 290 287 288 287 283 280 278 276 275 271 269 263 261 258 256 254 254 255 254 258 258 258 257 254 249 248 248 248 248
281 283 283 281 280 281 279 278 276 276 279 287 289 290 284 280 277 278 279 283 284 281 277 273 271 269 263 260 258 256 255 256 258 259 262 260 255 255 253 250 251 251 252
279 281 286 280 274 274 276 276 278 279 283 287 290 293 293 290 287 287 283 286 287 286 283 276 274 273 267 263 262 261 257 255 259 260 263 263 262 261 262 259 254 252 250
282 281 279 280 271 268 268 271 275 275 276 279 285 289 295 299 292 285 282 282 284 284 280 275 272 269 269 268 265 263 260 259 258 257 260 262 262 265 266 263 257 256 252
278 280 279 278 277 270 271 279 277 276 274 274 278 281 287 292 291 286 283 282 281 283 284 281 275 272 271 271 270 267 262 263 259 258 259 260 260 262 263 266 265 262 257
275 274 278 278 281 279 277 279 279 281 276 271 271 274 281 286 289 290 286 284 284 286 282 280 281 279 275 273 274 271 265 263 258 257 256 257 259 260 263 265 269 268 261
274 274 277 276 278 279 279 279 278 281 281 275 269 271 276 281 283 284 284 284 285 286 281 279 283 284 281 276 274 273 269 264 260 257 255 256 257 260 262 264 268 267 263
276 276 278 280 283 282 281 281 280 283 284 281 276 272 273 277 279 280 282 283 282 282 282 282 283 282 278 276 275 272 269 266 264 259 255 254 256 258 259 261 265 264 263
282 279 279 278 282 283 284 283 281 282 284 283 278 277 276 277 279 279 279 280 280 280 279 280 281 281 280 278 275 273 272 268 265 262 258 254 254 258 259 261 263 263 263
277 277 278 277 278 279 281 281 279 278 279 283 282 279 281 280 280 282 282 279 280 282 282 281 280 280 278 276 272 270 271 268 268 264 261 257 255 257 260 263 263 263 263
276 276 277 277 276 275 277 280 279 278 281 281 281 282 280 281 282 284 282 280 281 283 283 282 280 280 279 277 271 268 269 269 268 265 262 261 260 258 260 261 262 261 262
275 276 278 280 279 279 278 278 279 279 283 281 278 277 281 280 280 282 282 282 282 283 282 282 280 280 279 278 272 270 269 267 266 267 266 264 262 260 259 260 262 262 260
274 274 277 281 281 282 281 280 280 279 281 282 280 279 278 281 282 281 282 282 281 282 282 282 281 278 278 278 273 269 269 268 266 266 267 266 263 261 258 257 259 261 261
272 276 279 282 282 282 283 282 283 281 281 283 285 282 281 281 281 280 281 281 279 280 280 279 280 277 276 275 272 269 268 267 267 268 268 266 263 259 256 256 256 258 261
272 274 278 282 284 283 284 285 285 283 281 284 285 285 284 283 280 279 281 282 281 280 278 277 278 276 273 273 271 269 267 268 270 270 268 265 261 257 256 256 257 257 258
272 274 277 280 282 284 284 284 284 285 284 284 285 285 284 283 279 280 281 282 282 282 277 276 276 274 271 270 270 268 266 267 268 269 268 264 262 259 258 257 257 256 258
273 274 275 278 281 284 284 283 284 285 284 283 283 285 285 283 282 282 282 282 281 283 281 275 275 274 272 270 268 267 265 264 265 266 266 265 264 263 261 259 257 256 256
Height
5877 5876 5876 5875 5875 5875 5875 5875 5875 5875 5875 5874 5874 5873 5872 5871 5870 5869 5869 5868 5868 5868 5869 5869 5870 5870 5871 5871 5872 5873 5873 5873 5873 5873 5873 5872 5870 5869 5869 5871 5873 5873 5873
5876 5876 5876 5875 5875 5875 5875 5875 5875 5874 5874 5874 5874 5873 5872 5871 5870 5869 5868 5868 5868 5868 5869 5869 5870 5870 5871 5871 5872 5872 5872 5872 5872 5872 5871 5870 5867 5866 5868 5870 5872 5871 5870
5876 5875 5875 5875 5875 5875 5874 5874 5874 5874 5874 5873 5873 5872 5871 5870 5869 5868 5868 5868 5867 5868 5868 5869 5869 5870 5870 5871 5871 5872 5872 5872 5871 5871 5870 5869 5867 5867 5868 5870 5871 5870 5869
5875 5874 5874 5874 5874 5874 5873 5873 5873 5872 5872 5872 5872 5871 5870 5869 5868 5867 5866 5866 5866 5867 5867 5868 5869 5869 5870 5870 5870 5871 5871 5871 5870 5870 5870 5869 5868 5868 5869 5870 5870 5870 5870
5874 5873 5873 5873 5873 5873 5872 5872 5871 5871 5871 5871 5870 5869 5869 5868 5866 5865 5864 5864 5865 5866 5866 5867 5868 5868 5868 5869 5869 5869 5869 5869 5870 5870 5870 5869 5869 5869 5869 5869 5870 5870 5871
5873 5872 5872 5872 5872 5871 5871 5871 5870 5870 5869 5869 5869 5868 5867 5866 5864 5860 5860 5863 5864 5865 5866 5866 5867 5867 5867 5868 5868 5868 5868 5869 5869 5869 5869 5869 5868 5868 5868 5869 5869 5869 5870
5871 5871 5870 5870 5870 5869 5869 5869 5869 5868 5868 5868 5867 5867 5866 5864 5862 5859 5859 5862 5864 5864 5865 5865 5866 5866 5866 5867 5867 5867 5867 5867 5868 5868 5868 5868 5868 5867 5867 5868 5868 5869 5869
5870 5869 5869 5868 5867 5866 5866 5867 5867 5867 5867 5866 5866 5865 5864 5864 5863 5861 5861 5862 5863 5863 5864 5864 5864 5865 5865 5865 5866 5866 5866 5866 5866 5866 5866 5866 5866 5866 5866 5866 5867 5867 5868
5868 5867 5866 5865 5864 5864 5864 5864 5865 5865 5865 5865 5864 5864 5863 5863 5862 5861 5862 5862 5862 5862 5862 5863 5863 5863 5863 5864 5864 5864 5865 5865 5865 5865 5865 5865 5865 5865 5865 5865 5865 5866 5866
5866 5865 5864 5863 5862 5862 5862 5862 5863 5863 5863 5863 5863 5863 5862 5862 5861 5861 5861 5861 5861 5861 5861 5861 5861 5862 5862 5862 5862 5862 5863 5863 5863 5863 5863 5863 5863 5863 5863 5864 5864 5864 5864
5864 5863 5862 5861 5861 5861 5861 5861 5861 5861 5862 5862 5862 5861 5861 5861 5860 5860 5860 5860 5860 5859 5859 5860 5859 5860 5860 5860 5860 5860 5861 5861 5861 5861 5861 5861 5861 5861 5861 5861 5862 5862 5862
5863 5862 5860 5859 5859 5859 5859 5859 5860 5860 5860 5860 5860 5860 5860 5859 5859 5859 5858 5858 5858 5858 5858 5858 5858 5858 5858 5858 5858 5858 5858 5859 5859 5859 5859 5859 5859 5859 5859 5859 5860 5860 5860
5861 5860 5859 5859 5858 5857 5858 5858 5858 5858 5858 5858 5858 5858 5858 5858 5858 5857 5857 5857 5857 5856 5856 5856 5856 5856 5856 5855 5856 5856 5856 5856 5856 5857 5857 5857 5857 5857 5857 5857 5857 5857 5858
5859 5859 5858 5858 5857 5856 5856 5856 5856 5856 5857 5857 5856 5857 5857 5856 5856 5856 5855 5855 5855 5854 5854 5854 5854 5854 5854 5853 5853 5853 5853 5853 5853 5854 5854 5854 5854 5854 5855 5855 5855 5855 5855
5857 5857 5856 5856 5855 5855 5855 5855 5855 5855 5855 5855 5854 5855 5855 5854 5854 5854 5853 5853 5853 5852 5852 5852 5851 5851 5851 5851 5850 5850 5850 5850 5850 5851 5851 5851 5851 5852 5852 5852 5852 5852 5852
5855 5854 5854 5854 5854 5853 5853 5853 5853 5852 5852 5852 5852 5852 5852 5852 5852 5851 5851 5851 5850 5850 5850 5849 5849 5849 5848 5848 5848 5847 5847 5847 5847 5848 5848 5848 5848 5849 5849 5850 5850 5850 5849
5853 5852 5852 5852 5851 5851 5851 5851 5851 5850 5850 5849 5849 5849 5849 5849 5849 5849 5849 5848 5848 5848 5847 5847 5847 5846 5846 5845 5845 5845 5845 5844 5844 5844 5845 5845 5846 5846 5846 5847 5847 5846 5846
5850 5850 5850 5850 5849 5849 5848 5848 5848 5847 5847 5847 5847 5847 5847 5846 5846 5846 5846 5845 5845 5845 5845 5844 5844 5843 5843 5843 5842 5842 5842 5842 5842 5842 5842 5842 5843 5843 5843 5843 5844 5844 5843
5848 5848 5848 5847 5847 5847 5846 5846 5845 5845 5844 5844 5844 5844 5844 5843 5843 5843 5843 5842 5842 5842 5841 5841 5841 5840 5840 5839 5839 5839 5839 5839 5839 5839 5839 5839 5840 5840 5840 5840 5840 5840 5840
5845 5845 5845 5844 5844 5844 5844 5843 5843 5842 5841 5841 5841 5841 5840 5840 5840 5840 5839 5839 5839 5838 5838 5837 5837 5837 5836 5836 5836 5836 5836 5835 5835 5835 5836 5836 5836 5837 5836 5836 5837 5837 5837
5843 5842 5842 5842 5841 5841 5841 5840 5840 5839 5838 5838 5837 5837 5837 5837 5836 5836 5836 5835 5835 5835 5834 5834 5833 5833 5832 5832 5832 5832 5832 5832 5832 5832 5832 5832 5832 5832 5832 5833 5833 5833 5833
5840 5839 5839 5839 5839 5838 5838 5837 5837 5836 5835 5835 5834 5834 5833 5833 5833 5832 5832 5832 5831 5831 5830 5829 5829 5829 5828 5828 5828 5828 5828 5828 5828 5828 5828 5828 5828 5828 5828 5829 5829 5830 5830
5836 5836 5836 5836 5836 5835 5834 5834 5833 5832 5832 5831 5831 5830 5829 5829 5828 5828 5828 5828 5827 5827 5826 5825 5825 5824 5824 5824 5824 5824 5824 5824 5824 5824 5823 5823 5823 5824 5824 5824 5825 5826 5826
5834 5833 5833 5833 5832 5832 5831 5830 5829 5829 5828 5827 5827 5826 5825 5825 5825 5824 5823 5823 5822 5822 5822 5821 5820 5820 5819 5819 5819 5819 5820 5820 5820 5820 5820 5819 5819 5820 5820 5820 5821 5822 5822
5831 5830 5830 5830 5829 5828 5827 5826 5825 5825 5824 5823 5822 5822 5821 5821 5820 5820 5819 5818 5818 5817 5817 5816 5816 5815 5815 5814 5814 5815 5815 5815 5815 5815 5815 5815 5815 5815 5816 5816 5817 5817 5818
5827 5827 5826 5826 5825 5824 5823 5822 5821 5820 5819 5819 5818 5817 5817 5816 5816 5815 5815 5814 5813 5813 5812 5811 5810 5810 5810 5810 5810 5810 5810 5810 5810 5811 5811 5811 5811 5811 5811 5812 5812 5813 5813